TITAN 3C TRANSTAGE DEB, 1646

Orbit data source: Space-Track

TITAN 3C TRANSTAGE DEB, 1646 is space debris in LEO originally from a launch on Fri, 15 Oct 1965 UTC launched from the Air Force Eastern Test Range (AFETR). Debris objects in space refer to the collection of defunct objects orbiting the Earth. Examples of debris include non-operational satellites, rocket bodies, and fragments generated from explosions, collisions, or faulty payload assembly.

Loading next visibility...
Identifier
1646, 1965-082H
Orbit
LEO
Country
Flag of USUS
Related business
Manufacturer
Unknown
Mission
Spacecraft
Bus & Motor
Unknown
Mass
Unknown
Launch date (UTC)
1965-10-15 (61 years ago)
Launch vehicle
Unknown
Launch site
Air Force Eastern Test Range (AFETR)
Object type
Payload
Rocket body
Debris
Shape & HBR
Unknown shape, 1.2 m
Radar Cross Section
Large (>1 m²)

Expand to show TLE details & history
Last TLE update: 1 day ago

TLE from 1 day ago
0 TITAN 3C TRANSTAGE DEB
1 01646U 65082H   26207.00115567  .00000985  00000-0  13025-3 0  9996
2 01646  32.3091 117.9400 0003158 255.1589 104.8714 14.77569344225926
Epoch: 2026-07-26T00:01Z
TLE epoch observation values (Epoch: 2026-07-26T00:01:39.849Z)
Latitude
-0.00002°
Longitude
173.81857°
Altitude
636.234 km
Speed
7.542 km/s
True Right ascension
07h 51m 45s
True Declination
0° 00' 00"
Sunlit
Object was in daylight at epoch
Visualization orbit readout
Latitude
Unknown
Longitude
Unknown
Altitude
Unknown
Speed
Unknown
Apparent Right ascension
Unknown
Apparent Declination
Unknown
Sunlit
N/A
Visualization observer readout
Local Sidereal Time
15:32:22
Azimuth
Unknown
Elevation
Unknown
Doppler factor
Unknown
Orbital elements
Apogee altitude
642.817 km
Perigee altitude
638.384 km
Semi-major axis
7,018.738 km
Eccentricity
0.00032
Inclination
32.3091°
RAAN
117.94°
Arg. of periapsis
255.1589°
True anomaly
104.90637°
Mean anomaly
104.8714°
Eccentric anomaly
104.88889°
Mean motion
3.69109 °/min
Orbital period
97.53 mins
BSTAR
0.00013025

Documentation

Showing up to 5 results
|